User: anonymous
Location: Young's Pond
(41.2695°N, 72.7766°W)
Time: 07:17:16
(UTC-04:00)
Language:

Spot 4 - Orbit

View from above orbital plane
View from above orbital plane
View from above satellite
View from above satellite

Ground track
Ground track

The orbit data is extracted from the following two-line orbital elements,

1 25260U 98017A   14243.87591547  .00000183  00000-0  55563-4 0  4322
2 25260 098.4535 308.3883 0013549 158.6428 201.5332 14.53012422853657
Epoch (UTC): 31 August 2014 21:01:19
Eccentricity: 0.0013549
inclination: 98.4535°
perigee height: 706 km
apogee height: 725 km
right ascension of ascending node: 308.3883°
argument of perigee: 158.6428°
revolutions per day: 14.53012422
mean anomaly at epoch: 201.5332°
orbit number at epoch: 85365

The dashed part of the orbit path shows where the satellite is in the earth's shadow,  

DLR